Dewpoint
10 13 15 15 15 12 14 15 8 8 7 6 5 5 9 13 10 11 11 13 14 14 15 12 12 13 10 8 8 8 9 7 9 10 11 11 12 12 10 12 9 13 12 12 11 12 12 10 1
13 14 15 15 15 12 15 12 8 6 5 5 6 8 11 13 11 11 12 14 14 14 15 16 13 13 9 10 10 6 7 8 8 8 11 11 13 13 11 12 8 10 12 13 10 9 8 9 9
15 15 16 15 15 13 15 11 7 5 5 6 9 10 13 12 11 11 13 14 14 15 16 14 12 8 6 7 10 10 6 9 9 8 12 13 13 12 11 12 12 13 13 13 12 12 12 11 10
15 16 15 16 15 15 13 10 8 6 4 11 12 13 13 10 13 13 14 14 15 16 15 6 7 7 10 5 6 12 10 13 12 12 13 13 13 13 12 12 12 12 12 11 10 10 9 11 11
15 15 17 16 15 14 12 11 7 5 12 13 13 14 11 14 14 14 15 15 14 13 13 13 11 12 12 12 8 12 10 11 11 12 12 12 11 13 13 12 12 12 12 10 11 11 10 9 7
16 15 17 16 15 15 13 11 8 8 13 14 13 11 14 15 14 15 14 13 12 12 14 15 13 13 14 11 8 12 11 10 13 12 13 13 11 13 8 11 11 11 12 12 12 12 11 11 9
16 16 16 16 16 16 15 10 9 11 13 13 12 11 15 14 15 14 14 12 11 13 15 16 16 13 13 13 12 13 12 12 13 13 13 13 10 12 12 9 10 12 11 12 12 11 12 11 10
16 16 16 15 16 16 14 13 13 12 13 12 11 12 15 15 15 15 14 12 14 14 14 15 16 16 16 16 13 13 12 12 12 12 13 13 11 12 10 8 9 12 12 12 13 13 13 11 9
16 18 17 15 15 15 14 13 13 13 13 12 12 11 14 15 15 14 12 13 14 14 15 15 15 16 16 16 13 13 11 11 12 12 13 14 15 14 15 10 9 12 13 13 13 13 13 13 12
16 18 16 14 14 14 13 13 13 12 13 13 12 13 14 15 14 12 12 13 14 14 14 14 15 15 15 15 17 16 15 16 16 16 15 14 14 14 15 11 12 12 12 12 12 12 13 15 14
15 16 15 15 15 13 13 13 12 12 13 13 13 14 14 14 12 11 12 13 13 14 14 14 15 14 14 15 14 14 15 15 16 15 14 15 15 15 14 14 15 14 14 14 14 15 14 16 15
16 15 14 14 14 13 13 12 11 10 11 13 13 13 13 12 10 10 12 13 14 14 14 13 14 15 15 14 13 14 15 15 14 14 15 16 15 15 15 15 15 15 14 13 15 14 14 15 15
14 15 14 15 15 13 12 11 12 12 12 12 12 12 11 11 9 10 12 13 14 13 13 13 15 16 15 15 13 13 15 15 14 14 16 15 15 16 15 16 16 15 15 14 15 15 14 14 14
13 14 14 15 15 15 12 12 11 12 12 12 11 10 10 10 9 10 12 13 14 13 13 14 15 15 15 15 15 15 15 15 14 14 15 15 15 16 15 16 15 15 15 15 15 15 14 13 13
13 16 15 15 15 15 13 13 12 12 11 11 11 11 11 11 11 12 12 13 14 13 14 15 15 16 15 15 15 15 15 14 14 15 11 13 15 14 16 16 15 16 13 14 15 15 14 12 12
15 15 17 15 15 16 15 16 14 12 11 12 12 11 12 12 12 12 13 13 13 13 14 15 14 15 15 15 15 15 15 14 14 15 15 14 13 13 16 15 15 15 15 15 14 13 12 13 13
16 17 16 17 16 16 14 16 15 14 11 12 12 12 12 13 13 13 13 14 14 14 14 15 15 14 15 16 15 15 15 15 15 15 15 13 13 13 16 16 16 15 15 15 14 13 13 13 13
12 15 16 16 16 14 15 16 15 15 12 11 12 12 12 12 13 14 14 14 14 15 15 15 14 15 16 16 16 15 16 16 15 15 16 13 15 13 15 16 16 15 15 14 15 13 14 12 13
8 13 17 17 15 14 15 15 15 15 15 13 12 12 12 12 12 14 14 14 14 15 15 15 15 16 16 15 15 15 15 16 16 16 13 13 16 15 15 16 15 16 15 14 15 15 14 12 12
9 13 17 17 16 16 16 16 15 14 15 14 12 12 12 12 12 13 14 14 14 15 15 16 16 13 16 16 15 15 14 15 15 16 16 16 16 13 14 16 16 16 16 14 13 13 13 13 12
5 9 14 16 15 15 14 16 17 14 14 14 14 12 12 12 12 13 14 14 14 15 15 16 16 15 16 16 16 15 16 16 16 16 16 16 16 16 14 13 16 14 15 15 15 14 13 13 14
5 5 9 14 14 14 13 17 15 16 16 14 13 14 12 13 13 12 13 14 14 15 15 16 16 13 14 13 16 16 15 15 15 16 16 16 15 16 15 13 13 13 15 14 15 15 15 14 14
3 2 7 9 9 10 13 12 12 14 16 15 12 12 13 12 13 12 13 13 14 15 15 16 16 14 16 13 16 14 15 15 15 16 15 15 14 15 17 15 13 13 15 13 13 15 15 15 14
6 9 8 7 7 10 8 10 15 15 14 14 14 14 14 13 12 12 12 13 14 15 15 15 16 13 13 13 13 15 15 16 15 15 16 15 16 15 15 15 12 12 16 13 14 12 13 14 15
3 7 11 13 11 11 9 10 9 12 12 12 13 14 13 13 12 12 13 14 14 15 15 15 16 13 13 13 14 13 16 15 14 15 15 16 16 16 14 16 13 15 13 13 13 12 15 15 15
3 4 9 11 13 7 10 10 10 10 10 10 12 13 14 14 13 12 13 14 15 15 15 15 16 16 14 16 16 13 14 15 14 14 16 15 16 16 17 16 16 14 13 14 13 16 15 16 14
1 4 3 6 6 7 8 7 9 10 12 11 11 11 14 14 13 13 13 14 15 15 15 15 16 16 16 16 16 14 15 15 15 16 14 16 14 16 14 16 16 16 13 13 14 16 14 15 13
-3 -4 3 4 7 8 7 8 7 13 13 12 11 12 14 14 13 13 13 14 15 14 15 16 16 16 16 15 16 16 16 16 14 15 13 15 15 15 15 14 16 17 16 14 14 16 14 12 15
-3 -3 -3 -3 1 3 6 6 10 11 12 12 11 12 13 15 14 14 14 15 15 15 16 15 16 16 16 16 16 16 16 16 16 16 15 16 13 14 14 15 13 14 14 15 15 14 17 16 16
-2 -4 -3 -1 1 1 3 7 12 13 14 13 13 12 13 13 14 15 13 13 16 16 15 14 14 16 17 16 16 14 15 16 15 16 16 16 14 15 14 14 14 13 14 14 15 17 16 16 16
Wind_Speed
5 4 1 2 4 3 9 7 13 14 14 10 12 6 10 11 8 10 21 14 16 13 11 12 11 9 9 9 9 8 8 8 9 10 10 12 13 14 14 17 18 19 18 17 18 17 16 15 15
6 2 1 4 4 10 9 9 16 12 16 21 10 10 5 13 10 21 18 17 17 14 13 10 10 8 7 8 7 8 7 8 8 9 10 11 13 14 16 17 19 19 17 18 18 18 18 17 17
5 1 4 2 2 9 10 11 13 16 19 13 7 5 5 9 21 16 20 19 16 14 12 11 9 6 6 6 7 8 9 10 10 11 11 12 14 14 15 15 17 16 16 16 16 15 15 15 16
0 2 1 1 9 8 14 15 18 18 19 7 13 11 11 18 10 18 21 18 16 13 11 10 9 10 9 9 9 9 10 11 11 12 11 13 14 14 14 14 16 16 16 16 16 15 14 14 14
1 2 2 2 7 8 11 14 21 20 13 10 3 10 18 9 18 22 20 17 15 14 11 11 11 10 10 10 10 10 10 11 12 12 12 12 12 13 13 14 15 15 15 16 16 16 15 15 15
1 1 2 5 9 8 9 15 20 18 13 12 16 24 13 15 22 20 18 16 14 15 12 10 11 11 12 12 11 11 11 13 11 12 14 13 13 13 13 13 14 14 15 17 17 17 17 17 16
1 2 3 5 12 11 11 17 16 14 15 10 17 16 14 22 19 19 17 16 14 14 12 10 9 11 12 12 11 11 11 12 12 13 13 14 13 13 14 14 14 15 17 16 16 17 17 17 16
1 1 5 9 13 12 12 12 11 13 9 13 14 8 17 24 21 19 16 16 15 13 11 11 12 11 11 10 12 12 12 13 13 13 13 13 12 13 13 13 14 16 15 15 15 15 16 17 17
1 3 7 10 16 12 16 14 8 7 16 9 6 16 26 25 22 20 17 16 15 13 10 11 9 11 12 10 10 10 12 13 12 12 14 16 13 11 12 14 15 15 15 15 15 14 14 16 16
6 3 4 6 5 15 17 13 14 14 14 16 20 23 27 26 23 20 18 17 14 13 12 11 10 10 10 10 11 11 12 10 11 12 13 13 13 14 14 17 15 13 13 12 12 12 11 13 8
3 2 7 6 3 12 15 12 10 14 12 19 26 30 27 25 22 18 16 15 13 12 11 11 11 11 10 10 10 10 10 10 11 13 13 14 13 12 11 11 9 8 10 7 8 8 7 5 7
4 6 3 11 4 12 13 12 11 4 10 16 27 31 28 24 21 18 16 14 14 12 12 11 11 12 11 10 10 12 12 12 12 12 14 14 11 12 10 9 8 8 6 8 8 7 8 7 6
6 8 12 10 7 12 12 13 9 9 13 22 27 26 25 21 19 17 15 14 14 13 13 12 12 12 11 12 12 12 13 12 12 12 12 11 10 9 7 7 6 7 7 7 7 8 8 8 7
2 10 18 8 5 5 11 14 9 12 21 27 25 24 22 20 19 17 16 15 14 13 13 13 13 12 11 12 14 13 13 12 12 11 10 12 7 7 6 5 5 6 6 5 6 8 8 9 8
6 10 10 10 12 2 8 10 9 20 23 24 23 21 20 20 18 16 15 15 16 14 15 15 14 13 13 13 13 13 11 11 11 10 11 9 7 7 7 4 5 4 5 7 6 7 8 8 8
5 10 10 9 11 5 6 15 9 20 24 23 21 21 20 19 17 15 14 14 15 16 17 16 14 14 14 12 13 12 12 11 10 8 7 7 6 8 7 6 5 4 5 6 6 7 6 6 6
9 7 8 8 12 5 3 5 3 14 22 22 22 21 20 19 17 15 14 14 15 16 16 16 15 15 15 14 12 11 11 9 9 8 6 7 6 7 5 5 3 7 5 5 6 5 5 3 4
8 7 12 12 7 11 6 6 6 11 21 23 22 22 21 20 18 16 15 15 15 15 15 15 15 16 15 11 12 10 10 9 9 8 7 7 7 7 8 3 5 7 5 5 4 5 3 3 1
2 7 12 9 13 6 8 8 13 16 17 17 23 23 22 21 20 18 16 15 16 16 16 17 16 16 14 12 12 10 9 9 9 8 9 8 6 6 6 5 5 6 5 5 3 3 4 3 2
6 13 15 14 11 5 6 10 15 23 18 21 22 22 23 22 21 20 19 17 17 18 18 17 16 18 15 13 13 10 10 9 8 8 7 6 6 6 4 7 4 7 3 4 4 5 4 4 4
5 2 14 15 10 10 11 2 10 21 17 19 21 21 24 23 23 22 21 20 18 19 20 19 17 16 15 15 12 10 9 10 8 8 6 6 7 6 6 8 7 5 6 3 4 3 5 4 5
4 2 8 19 12 6 14 4 7 17 20 24 26 26 27 24 22 23 23 22 21 19 18 18 18 17 15 17 12 11 10 10 8 7 7 6 8 7 6 8 8 7 5 5 3 2 5 7 4
2 6 7 9 2 8 15 6 8 16 18 23 33 32 28 25 26 25 24 23 22 20 19 18 17 18 15 18 14 10 10 8 7 7 7 7 7 7 7 9 10 9 4 6 6 3 6 4 5
8 10 4 3 2 7 8 11 10 18 25 24 30 31 34 27 27 27 25 23 21 20 19 18 18 20 20 19 15 12 11 9 8 7 5 6 5 7 7 7 9 9 6 6 6 6 5 5 4
11 8 3 3 7 7 4 7 2 18 15 25 33 37 38 35 28 27 25 23 22 23 21 19 18 20 21 18 16 14 11 9 6 7 8 6 5 4 5 8 7 5 9 8 8 7 6 4 4
14 14 6 7 4 7 4 6 4 10 12 19 28 33 35 35 32 26 26 25 24 24 22 20 19 19 20 18 16 15 13 9 7 6 7 6 6 5 8 6 6 6 8 7 8 6 6 6 4
14 15 14 9 7 6 7 6 9 9 9 15 20 30 33 37 32 26 24 24 25 24 24 22 19 18 17 18 15 15 13 13 10 6 9 6 6 9 7 7 7 6 7 7 8 6 7 9 7
13 12 16 12 13 12 7 8 2 10 10 13 19 30 31 29 33 30 26 24 21 25 24 21 18 16 15 16 15 15 12 12 14 11 10 9 7 9 10 7 6 7 7 7 7 7 9 8 7
12 12 10 13 14 12 12 7 6 5 7 11 18 25 27 33 34 32 31 23 21 22 22 29 17 14 14 15 15 15 14 12 11 11 11 9 9 8 8 8 7 4 7 8 8 8 9 8 7
8 17 16 10 15 10 13 0 4 5 5 7 13 19 22 23 28 26 34 31 28 26 23 22 24 14 11 15 16 17 15 13 12 12 13 11 10 10 9 8 7 5 6 6 7 6 7 8 7
Wind_Direction
151 146 240 324 218 207 105 91 119 125 133 133 126 128 72 26 6 91 142 137 143 138 142 134 134 130 120 115 113 106 99 95 89 88 91 95 97 92 89 87 94 99 100 95 99 95 95 93 85
173 158 327 279 206 135 104 121 132 141 129 138 127 132 88 71 94 126 134 142 136 135 135 143 143 130 127 119 116 118 109 103 101 104 96 100 103 96 93 89 99 99 95 92 93 92 88 88 85
168 261 284 333 317 104 118 127 134 126 138 144 105 78 42 98 120 127 143 138 137 139 134 142 132 130 128 131 116 107 114 108 108 114 110 107 104 99 103 98 99 95 92 89 89 91 88 86 77
230 300 112 28 117 89 120 135 136 136 149 125 127 87 86 129 116 138 136 135 137 133 134 131 131 126 118 119 121 110 114 106 103 102 106 104 103 104 106 105 102 94 90 89 88 87 88 87 82
180 316 73 158 116 119 111 140 146 144 147 146 153 114 118 114 130 134 135 135 136 135 126 123 124 117 116 114 126 114 115 115 113 113 113 109 107 106 107 107 102 95 93 89 86 87 87 84 79
8 111 112 177 129 128 117 151 152 152 119 117 117 124 109 129 137 139 138 138 136 130 130 123 122 117 111 107 114 118 120 117 109 116 118 115 104 102 104 112 106 99 98 91 87 84 83 80 77
124 136 203 208 142 145 133 144 159 148 152 141 138 124 125 145 145 143 141 140 133 133 134 121 115 115 118 117 119 121 122 119 117 120 114 114 103 106 103 118 111 102 104 92 84 82 77 75 74
303 247 182 199 160 141 145 151 137 158 116 139 144 153 153 152 147 148 146 137 136 135 136 134 124 124 118 116 122 125 125 125 124 122 114 114 101 98 98 108 112 103 99 95 86 80 78 75 71
205 256 176 170 164 141 148 135 135 126 144 145 167 147 153 148 152 149 148 146 141 141 135 134 137 128 131 123 120 123 122 118 109 115 110 90 96 100 106 126 113 111 104 95 84 74 69 72 58
221 247 167 79 143 148 156 150 143 145 136 125 120 131 144 150 153 155 155 152 148 146 140 142 141 134 134 137 125 127 112 125 127 121 112 111 118 126 113 108 107 103 96 83 76 71 67 64 68
235 286 140 109 133 153 146 142 155 154 158 154 144 146 151 154 157 158 157 153 152 148 145 144 150 143 141 150 133 133 128 123 122 116 115 114 106 105 109 97 93 94 82 80 60 53 57 64 82
275 111 146 146 143 154 150 133 135 169 139 160 153 151 154 159 160 161 160 155 155 152 146 149 147 140 139 123 136 140 138 136 128 131 118 110 113 112 112 116 103 92 91 82 73 63 58 67 76
244 116 136 122 106 145 146 136 123 109 141 143 149 152 156 160 161 163 161 159 156 153 150 152 147 142 141 125 130 138 136 133 140 127 126 124 121 116 118 112 110 104 88 80 65 63 67 68 74
356 140 140 125 139 88 163 139 133 121 143 145 154 156 159 162 162 163 164 162 158 159 155 154 148 142 134 141 133 132 135 141 136 134 132 123 121 114 113 106 107 96 95 87 72 76 80 80 74
238 149 142 167 148 88 117 141 126 143 148 149 158 159 161 162 160 161 161 165 161 160 157 152 148 143 136 133 125 130 126 137 138 144 142 135 119 134 118 115 119 114 106 87 65 79 84 83 78
196 151 155 167 156 116 20 146 135 158 159 159 161 159 160 162 160 158 155 157 160 160 158 153 152 148 140 144 129 133 137 134 141 143 144 142 132 134 115 103 121 129 108 91 99 100 93 84 80
189 181 180 143 86 86 126 157 161 170 175 170 169 168 166 163 165 162 157 157 160 161 160 157 158 152 148 146 139 136 142 140 148 144 141 164 144 139 119 119 124 124 115 115 106 87 93 83 73
182 168 166 145 120 109 142 133 193 197 191 180 177 175 177 175 175 172 166 161 161 161 163 161 158 160 154 157 149 148 143 141 149 149 154 133 150 156 134 120 123 125 119 108 117 101 72 80 31
312 123 116 113 133 109 130 159 207 205 210 204 183 179 181 183 179 178 176 172 169 170 168 169 167 172 165 161 157 156 152 157 156 156 163 140 142 139 136 144 118 127 140 134 93 61 63 61 41
202 137 124 140 160 133 155 210 202 202 209 207 194 186 183 182 180 185 185 184 181 181 181 180 179 177 169 180 163 165 165 162 170 168 170 175 165 158 144 147 142 146 163 150 127 100 91 59 75
213 312 164 135 132 100 132 8 185 211 200 210 217 206 187 187 185 191 191 192 189 190 189 190 190 192 188 182 188 183 183 170 168 181 176 189 184 185 173 167 170 163 133 164 119 90 101 84 63
158 21 85 138 153 177 202 146 221 205 189 198 215 218 208 198 203 193 196 198 195 196 194 195 198 201 201 199 199 197 178 190 186 189 195 189 185 194 188 186 181 166 176 175 159 112 103 103 100
138 249 141 156 152 162 197 239 164 195 198 193 209 209 212 196 202 201 199 201 199 196 196 196 194 203 198 199 196 194 184 195 191 191 202 188 194 195 209 196 189 188 160 200 183 153 146 90 100
112 112 102 111 320 223 173 234 160 187 208 197 197 215 208 211 200 203 204 202 202 199 195 195 194 202 203 200 199 184 196 187 180 189 192 179 186 199 190 188 197 206 203 213 197 195 181 156 126
181 128 155 284 194 236 115 225 76 185 187 196 197 205 206 206 206 205 207 201 204 201 196 194 195 201 204 206 208 205 203 206 224 211 206 197 192 190 214 203 207 218 208 205 205 211 206 203 192
205 170 228 247 196 196 159 232 125 175 188 198 200 203 201 204 205 204 200 202 202 201 198 195 198 199 206 207 213 214 215 219 231 220 214 221 214 195 199 198 199 196 187 207 217 227 212 234 239
184 220 205 272 267 278 177 195 174 175 193 200 208 197 194 198 206 203 200 200 198 202 200 200 198 200 205 211 214 220 226 212 215 227 211 232 235 205 209 195 193 191 191 204 212 204 217 230 241
277 224 209 228 250 229 191 240 276 170 178 182 178 180 187 191 201 209 205 200 205 199 202 196 202 203 205 211 215 220 223 230 239 243 230 229 237 197 204 202 215 214 219 220 226 233 237 235 236
199 236 225 245 226 251 242 203 51 136 168 177 180 180 182 184 192 202 198 196 196 191 200 192 193 201 210 216 221 219 227 227 234 239 238 244 243 224 208 215 211 210 225 237 232 221 220 232 238
287 219 210 225 218 251 283 147 117 117 152 186 181 185 183 190 192 196 203 201 193 188 198 198 213 195 220 222 228 229 227 231 233 240 237 241 244 240 225 221 224 243 248 244 225 216 227 236 242
Height
1523 1524 1525 1525 1521 1504 1517 1525 1523 1528 1531 1534 1537 1537 1539 1544 1539 1551 1561 1564 1567 1569 1570 1571 1573 1574 1575 1576 1576 1577 1577 1577 1577 1578 1579 1579 1579 1580 1580 1580 1580 1581 1582 1582 1582 1582 1582 1583 1583
1526 1525 1525 1523 1511 1512 1523 1519 1525 1527 1531 1537 1539 1541 1540 1548 1551 1556 1562 1567 1569 1572 1573 1575 1574 1575 1576 1577 1577 1578 1578 1579 1580 1580 1581 1581 1582 1582 1583 1583 1583 1584 1585 1585 1585 1585 1586 1585 1585
1527 1526 1525 1523 1512 1514 1524 1520 1526 1530 1535 1537 1539 1541 1545 1554 1558 1560 1564 1568 1571 1573 1574 1574 1575 1577 1577 1578 1579 1579 1580 1581 1581 1583 1584 1583 1583 1584 1585 1586 1587 1587 1588 1587 1588 1588 1588 1588 1588
1529 1528 1527 1528 1519 1520 1518 1521 1526 1531 1537 1539 1542 1546 1555 1558 1561 1563 1566 1570 1573 1575 1577 1575 1577 1578 1578 1579 1580 1581 1582 1583 1584 1585 1585 1585 1586 1587 1588 1589 1590 1589 1590 1590 1590 1591 1590 1591 1591
1530 1528 1526 1527 1522 1520 1519 1523 1528 1532 1536 1540 1541 1547 1556 1562 1563 1566 1569 1572 1575 1577 1578 1578 1578 1579 1580 1581 1582 1583 1584 1585 1587 1587 1588 1588 1588 1590 1590 1592 1593 1593 1593 1593 1593 1593 1594 1594 1593
1528 1529 1536 1524 1522 1521 1523 1527 1529 1532 1538 1544 1545 1549 1558 1564 1566 1569 1572 1574 1577 1579 1582 1581 1580 1581 1582 1583 1584 1586 1586 1588 1590 1590 1591 1591 1592 1592 1592 1594 1595 1595 1596 1596 1596 1596 1596 1596 1595
1529 1530 1532 1523 1521 1525 1526 1529 1530 1534 1540 1542 1546 1548 1562 1565 1568 1571 1574 1576 1578 1581 1583 1585 1585 1584 1585 1586 1587 1589 1590 1590 1591 1591 1592 1594 1594 1594 1595 1596 1597 1598 1599 1599 1599 1599 1599 1598 1598
1530 1528 1529 1517 1519 1527 1528 1530 1533 1535 1538 1544 1546 1551 1559 1564 1569 1572 1575 1577 1580 1582 1584 1586 1586 1588 1590 1590 1589 1590 1591 1592 1593 1594 1595 1595 1597 1597 1598 1599 1600 1601 1601 1602 1602 1602 1601 1601 1601
1528 1528 1521 1513 1518 1524 1528 1531 1537 1539 1543 1545 1547 1550 1558 1563 1569 1573 1576 1578 1580 1583 1584 1586 1588 1588 1590 1592 1591 1592 1593 1595 1595 1596 1598 1599 1603 1603 1603 1602 1602 1604 1604 1604 1604 1604 1604 1603 1603
1525 1524 1517 1516 1522 1520 1527 1531 1536 1539 1544 1546 1550 1556 1561 1566 1570 1573 1576 1578 1581 1584 1586 1588 1590 1590 1593 1594 1594 1596 1597 1599 1600 1601 1602 1604 1605 1604 1605 1604 1606 1606 1607 1606 1606 1606 1606 1607 1609
1521 1520 1516 1526 1524 1522 1527 1533 1536 1537 1541 1547 1550 1556 1563 1566 1570 1574 1577 1580 1582 1584 1587 1589 1590 1592 1594 1594 1596 1598 1600 1601 1601 1602 1605 1605 1607 1608 1609 1608 1610 1610 1609 1611 1610 1610 1610 1609 1610
1520 1518 1519 1526 1527 1524 1530 1534 1535 1539 1540 1547 1552 1557 1562 1567 1571 1574 1578 1581 1583 1585 1587 1589 1590 1592 1594 1595 1597 1599 1601 1602 1604 1605 1605 1607 1609 1610 1611 1611 1612 1612 1613 1611 1611 1612 1610 1610 1610
1517 1519 1526 1529 1530 1528 1531 1534 1538 1543 1545 1549 1556 1560 1564 1568 1572 1575 1578 1581 1583 1586 1588 1590 1590 1592 1592 1596 1598 1600 1602 1604 1605 1607 1607 1610 1611 1611 1612 1611 1613 1613 1614 1614 1613 1612 1612 1611 1612
1517 1520 1525 1530 1533 1534 1531 1534 1536 1546 1548 1552 1558 1561 1565 1569 1572 1575 1578 1581 1584 1586 1588 1589 1591 1592 1594 1596 1598 1601 1604 1605 1607 1609 1609 1609 1613 1612 1613 1613 1614 1614 1615 1615 1615 1614 1614 1614 1614
1517 1523 1528 1530 1532 1539 1535 1538 1536 1546 1551 1555 1558 1562 1566 1569 1573 1576 1579 1581 1584 1586 1588 1590 1592 1594 1595 1597 1599 1603 1605 1607 1609 1610 1610 1611 1613 1613 1614 1614 1615 1616 1614 1615 1615 1616 1615 1615 1615
1516 1518 1526 1530 1533 1541 1541 1542 1547 1548 1551 1555 1558 1562 1566 1570 1574 1577 1579 1582 1584 1587 1588 1591 1594 1596 1597 1599 1601 1605 1606 1609 1611 1612 1612 1612 1613 1613 1615 1616 1616 1616 1616 1617 1617 1617 1617 1617 1617
1514 1518 1523 1533 1537 1541 1546 1548 1552 1550 1550 1553 1558 1562 1567 1570 1574 1577 1580 1582 1585 1587 1589 1592 1595 1597 1599 1600 1603 1605 1606 1609 1611 1612 1614 1612 1613 1614 1616 1617 1616 1616 1618 1618 1618 1619 1618 1618 1618
1499 1515 1519 1523 1539 1541 1549 1547 1550 1553 1550 1551 1556 1560 1565 1569 1573 1577 1580 1583 1585 1588 1590 1593 1596 1597 1600 1602 1603 1606 1608 1610 1611 1613 1614 1613 1614 1614 1615 1617 1616 1617 1619 1619 1619 1618 1618 1618 1618
1497 1511 1525 1533 1539 1541 1545 1547 1548 1552 1555 1551 1554 1558 1563 1567 1572 1576 1580 1583 1585 1588 1591 1593 1596 1597 1600 1603 1606 1608 1609 1610 1612 1613 1612 1613 1615 1615 1616 1617 1617 1618 1620 1618 1618 1619 1618 1619 1618
1496 1505 1530 1533 1538 1537 1544 1547 1548 1550 1553 1556 1554 1556 1560 1565 1569 1574 1578 1581 1584 1587 1590 1593 1595 1597 1600 1603 1605 1607 1609 1610 1612 1612 1612 1613 1614 1615 1616 1616 1618 1618 1619 1618 1619 1618 1620 1619 1618
1500 1499 1511 1525 1534 1537 1543 1552 1550 1550 1553 1555 1556 1555 1557 1561 1567 1572 1576 1579 1583 1585 1588 1591 1594 1596 1599 1602 1604 1605 1607 1609 1611 1611 1612 1613 1614 1615 1615 1616 1618 1618 1619 1620 1619 1619 1619 1620 1620
1507 1503 1505 1520 1527 1532 1528 1554 1548 1544 1547 1551 1554 1558 1554 1560 1563 1568 1572 1577 1580 1583 1586 1589 1592 1595 1598 1600 1604 1605 1607 1608 1610 1612 1612 1612 1612 1615 1615 1616 1616 1618 1619 1619 1620 1620 1620 1620 1621
1516 1508 1511 1511 1515 1518 1527 1529 1518 1534 1538 1542 1547 1550 1554 1555 1561 1562 1568 1573 1577 1581 1584 1588 1590 1593 1597 1599 1603 1604 1606 1608 1610 1611 1611 1611 1611 1613 1615 1615 1615 1617 1618 1618 1619 1620 1620 1622 1622
1513 1516 1515 1516 1516 1522 1506 1513 1523 1525 1519 1528 1541 1544 1550 1552 1555 1560 1564 1569 1575 1579 1583 1586 1588 1591 1594 1597 1600 1603 1605 1608 1609 1610 1611 1610 1612 1612 1613 1614 1615 1615 1617 1617 1618 1619 1620 1621 1621
1513 1523 1537 1547 1527 1523 1506 1511 1497 1505 1509 1515 1524 1533 1541 1548 1551 1555 1560 1565 1571 1576 1580 1583 1585 1589 1592 1596 1599 1601 1604 1607 1608 1609 1610 1611 1611 1612 1611 1612 1613 1615 1614 1615 1617 1619 1619 1621 1622
1508 1520 1533 1530 1537 1507 1507 1510 1494 1497 1505 1509 1516 1525 1535 1543 1548 1552 1557 1563 1568 1573 1577 1580 1583 1587 1590 1594 1598 1600 1603 1606 1607 1608 1609 1610 1611 1612 1612 1611 1612 1612 1613 1614 1616 1618 1619 1620 1621
1502 1510 1505 1520 1496 1504 1492 1493 1496 1501 1504 1508 1510 1517 1528 1535 1543 1550 1554 1559 1564 1569 1573 1577 1581 1584 1588 1592 1596 1599 1601 1604 1606 1607 1608 1611 1609 1611 1610 1611 1611 1611 1612 1613 1614 1616 1617 1618 1619
1498 1497 1509 1507 1519 1522 1497 1500 1490 1499 1500 1502 1506 1511 1522 1531 1539 1546 1551 1555 1558 1566 1571 1576 1580 1583 1586 1590 1594 1597 1600 1602 1604 1606 1607 1609 1609 1608 1609 1609 1610 1611 1611 1612 1613 1615 1615 1615 1617
1503 1502 1496 1492 1497 1507 1509 1496 1487 1493 1497 1500 1505 1511 1517 1524 1533 1538 1546 1552 1557 1563 1566 1570 1577 1582 1585 1587 1591 1595 1598 1601 1602 1604 1605 1607 1606 1607 1607 1607 1607 1608 1610 1611 1611 1612 1614 1614 1615
1489 1491 1492 1503 1510 1496 1491 1490 1494 1498 1503 1505 1505 1511 1519 1526 1532 1535 1539 1546 1553 1558 1562 1567 1572 1577 1581 1585 1587 1591 1595 1598 1600 1601 1603 1604 1605 1604 1605 1606 1607 1607 1608 1609 1610 1611 1613 1613 1613